Regional Weather Roundup
Issued by NWS

Home | Current Version | Previous Version | Text Only | Print | Product List | Glossary On
Versions: 1 2 3 4 5 6 7 8 9 10 11 12 13 14 15 16 17 18 19 20 21 22 23 24 25 26 27 28 29 30 31 32 33 34 35 36 37 38 39 40 41 42 43 44 45 46 47 48 49 50
000
ASUS46 KLOX 251412
RWRCA

SOUTHERN CALIFORNIA WEATHER ROUNDUP
NATIONAL WEATHER SERVICE OXNARD CALIFORNIA
700 AM PDT SAT OCT 25 2014

NOTE: "FAIR" INDICATES FEW OR NO CLOUDS BELOW 12,000 FEET WITH NO
SIGNIFICANT WEATHER AND/OR OBSTRUCTIONS TO VISIBILITY.

  -  STATIONS PRECEEDED BY AN ASTERISK (*) ARE NOT NWS OR FAA
     STATIONS AND ARE NOT SUBJECT TO NWS AND FAA QUALITY CONTROL.

CAZ041-042-087-251500-
LA AND ORANGE COUNTY COASTAL AREAS


CITY           SKY/WX    TMP DP  RH WIND       PRES   REMARKS
L.A. DOWNTOWN  CLOUDY    64  54  69 CALM      30.00R
L.A. AIRPORT   MOCLDY    65  61  87 CALM      30.01R
LONG BEACH     CLOUDY    66  63  90 NW3       30.01R

CITY           SKY/WX    TMP DP  RH WIND       PRES   REMARKS
AVALON           N/A     63 N/A N/A MISG        N/A
FULLERTON      CLOUDY    65  58  78 CALM      29.99R
*GETTY CENTER    N/A     63  36  36 VRB3        N/A
HAWTHORNE      CLOUDY    65  57  75 CALM      30.01R
*LOS ALAMITOS  CLOUDY    64  63  95 NW2       30.00R
*REDONDO BEACH   N/A     64  62  92 W2        30.00R
SANTA ANA      CLOUDY    66  61  82 VRB5      30.01R
STA MONICA APT PTCLDY    62  50  64 CALM      30.01R
TORRANCE       PTCLDY    66  63  88 W12       30.01
*UCLA            N/A     63  43  48 W2        29.99R

$$

CAZ547-548-048-251500-
LA COUNTY VALLEYS AND INLAND EMPIRE


CITY           SKY/WX    TMP DP  RH WIND       PRES   REMARKS
BURBANK        PTCLDY    60  45  57 W6        30.01R
VAN NUYS       PTCLDY    57  43  59 CALM      30.02R

CITY           SKY/WX    TMP DP  RH WIND       PRES   REMARKS
CORONA AIRPORT MOSUNNY   57  47  69 CALM      30.02R
*CHATSWORTH      N/A     57  44  61 CALM      29.99R
CHINO          MOCLDY    62  46  55 CALM      30.02R
MARCH AFB      PTCLDY    61  37  41 CALM      30.04R
*NORTHRIDGE      N/A     55  39  54 CALM        N/A
ONTARIO        MOCLDY    67  41  38 CALM      30.01R
*PASADENA        N/A     68  46  45 CALM        N/A
POMONA         CLOUDY    64  45  48 CALM      30.04
RIVERSIDE      MOCLDY    64  42  44 E3        30.02R
SAN BERNARDINO MOCLDY    61  37  41 CALM      30.03
*SAN RAFAEL HI   N/A     71  40  32 SW5         N/A
*SAUGUS          N/A     58  36  44 E2          N/A
*WHITEMAN AP   NOT AVBL
*WHITTIER HILL   N/A     67  47  48 CALM        N/A
*WOODLAND HILL   N/A     54  41  62 S1          N/A

$$

CAZ054-055-251500-
LA AND SAN BERNARDINO COUNTY MOUNTAINS


CITY           SKY/WX    TMP DP  RH WIND       PRES   REMARKS
*BIG BEAR AIRP SUNNY     52  37  58 W6G17     30.26R
MT WILSON NWS    N/A     57  37  47 SW9         N/A
SANDBERG       MOCLDY    60  22  23 S12       30.13R
*WARM SPRINGS    N/A     58  24  27 SW3         N/A

$$

CAZ028-029-059-060-099-251500-
ANTELOPE VALLEY AND SURROUNDING AREAS


CITY           SKY/WX    TMP DP  RH WIND       PRES   REMARKS
LANCASTER      PTCLDY    53  26  35 W8        30.07R
PALMDALE       CLOUDY    58  34  40 S3        30.07R
*POPPY PARK      N/A     57  27  31 W5          N/A

CITY           SKY/WX    TMP DP  RH WIND       PRES   REMARKS
29 PALMS       CLEAR     61  38  42 NW6       30.11R
BARSTOW/DAGGET CLEAR     64  34  32 SW6       30.04R
BISHOP         PTCLDY    62  32  32 SE21G26   29.99S
CHINA LAKE     CLEAR     64  29  26 SW12      30.02R
EDWARDS AFB    MOCLDY    53  29  40 CALM      30.06R
MOJAVE         FAIR      63  30  29 CALM      30.07R
NEEDLES        PTCLDY    68  41  37 CALM      29.98R
VICTORVILLE    CLEAR     55  36  47 S6        30.08S

$$

CAZ039-040-251500-
VENTURA AND SANTA BARBARA COUNTY COAST


CITY           SKY/WX    TMP DP  RH WIND       PRES   REMARKS
CAMARILLO      PTCLDY    57  54  89 E7        30.02R
OXNARD AIRPORT CLOUDY    55  50  83 E5        30.02R
*POINT MUGU    MOCLDY    59  55  87 N7        30.02R
SBA APT/GOLETA CLEAR     51  48  89 CALM      30.01R
*SANTA BARBARA   N/A     57  51  82 CALM      30.09R
*VENTURA         N/A     54  47  78 NE3       30.05S

$$

CAZ044-045-251500-
VENTURA COUNTY VALLEYS


CITY           SKY/WX    TMP DP  RH WIND       PRES   REMARKS
*SIMI VALLEY     N/A     53  41  64 CALM      29.99R
*OJAI            N/A     44  35  71 CALM      30.00R
*FILLMORE        N/A     49  43  81 CALM      29.94R

$$

CAZ053-251500-
VENTURA COUNTY MOUNTAINS


CITY           SKY/WX    TMP DP  RH WIND       PRES   REMARKS
*LOCKWOOD VLY    N/A     39  12  33 MISG        N/A
*ROSE VALLEY     N/A     36  23  60 MISG        N/A

$$

CAZ034-035-036-251500-
CENTRAL COAST AND SANTA YNEZ VALLEY


CITY           SKY/WX    TMP DP  RH WIND       PRES   REMARKS
SAN LUIS OBISP CLEAR     51  49  92 E3        30.04R
SANTA MARIA    CLEAR     54  50  86 CALM      30.04S

CITY           SKY/WX    TMP DP  RH WIND       PRES   REMARKS
*CAL POLY SLO    N/A     50  50 100 CALM        N/A
*LOMPOC        CLEAR     52  46  82 CALM      30.04S
*PISMO BEACH     N/A     52  50  93 NE3       30.04R
*SANTA YNEZ    FAIR      50  46  87 E5        30.06R

$$

CAZ037-038-051-251500-
SAN LUIS OBISPO COUNTY INTERIOR AND CUYAMA VALLEY


CITY           SKY/WX    TMP DP  RH WIND       PRES   REMARKS
*CUYAMA          N/A     46  40  82 W1        29.99R
PASO ROBLES    PTCLDY    47  44  90 SE3       30.05R

$$

CAZ032-033-061-251500-
SOUTHERN DESERTS


CITY           SKY/WX    TMP DP  RH WIND       PRES   REMARKS
BLYTHE         PTCLDY    67  44  43 N7        29.95R
IMPERIAL       PTCLDY    68  53  58 SW5       29.92R
PALM SPRINGS   CLEAR     72  48  42 CALM      29.97R
THERMAL        PTCLDY    66  48  52 NW7       29.89S

$$

ELSEWHERE ACROSS THE WESTERN UNITED STATES AND MEXICO


CITY           SKY/WX    TMP DP  RH WIND       PRES   REMARKS
DENVER, CO     PTCLDY    51  23  33 SW9       30.24R
GRAND CANYON,  CLEAR     30  24  78 CALM      30.34S HAZE
HONOLULU, HI   PTCLDY    76  70  82 E8        29.98F
KAHULUI, MAUI  CLEAR     72  67  84 NE3       29.99F
LAKE TAHOE, CA CLEAR     51  23  33 S21G32    30.00R
LAS VEGAS, NV  PTCLDY    64  39  39 SW7       29.98S
MAMMOTH LAKES, FAIR      52  16  24 S12G25    30.12S
MEXICO CITY, M CLOUDY    55  48  76 N12       30.44R
PHOENIX, AZ    PTCLDY    74  48  39 E12       29.98F
PORTLAND, OR   LGT RAIN  54  50  86 E12       29.60S
RENO, NV       PTCLDY    62  25  24 S24G31    29.92R
SALT LAKE CITY CLEAR     58  29  33 SE12      30.07S
SAN DIEGO, CA  MOCLDY    67  56  67 CALM      30.00R
SAN FRANCISCO, LGT RAIN  64  58  80 SE9       29.95R
SAN JOSE, CA   LGT RAIN  59  58  96 S7        29.98R FOG
SEATTLE, WA    CLOUDY    49  46  90 N5        29.48S
TIJUANA, MEX   PTCLDY    64  50  59 CALM      30.02R

$$

STATION/POSITION TIME  TEMP    WIND        PRES    VSBY  WAVE
                       AIR SEA DIR/SP/G                  HT/PER
                 (UTC) (F)     (DEG/KT/KT) (MB)    (MI)  (FT/S)
POINT ARGUELLO B NOT AVBL
WEST SANTA BARBA 1400   63 63  310/  6/  8 1015.8R         6/11
POINT CONCEPTION NOT AVBL
EAST SANTA BARBA 1300   64 69  310/  6/  8 1016.1R
SANTA MONICA BAY 1400   66 67  320/ 12/ 14 1015.8R         3/11



USA.gov is the U.S. government's official web portal to all federal, state and local government web resources and services.